Total_Precipitation_Accumulation
0.00 0.00 0.00 0.00 0.00 0.00 0.00 0.00 0.00 0.00 0.00 0.00 0.00 0.00 0.00 0.02 0.13 0.22 0.47 0.76 0.78 0.44 0.51 0.45 0.29 0.52 0.73 0.48 0.47 0.39 0.44 0.60 0.69 0.59 0.37 0.23 0.11 0.04 0.02 0.02 0.00 0.00 0.00
0.00 0.00 0.00 0.00 0.00 0.00 0.00 0.00 0.00 0.00 0.00 0.00 0.00 0.00 0.00 0.00 0.06 0.21 0.33 0.81 0.89 0.66 0.39 0.55 0.49 0.43 0.55 0.60 0.51 0.46 0.51 0.52 0.61 0.57 0.52 0.42 0.24 0.10 0.04 0.02 0.00 0.00 0.00
0.00 0.00 0.00 0.00 0.00 0.00 0.00 0.00 0.00 0.00 0.00 0.00 0.00 0.00 0.00 0.00 0.00 0.11 0.41 0.91 1.24 0.77 0.52 0.33 0.54 0.60 0.54 0.47 0.49 0.47 0.42 0.47 0.53 0.46 0.38 0.31 0.25 0.12 0.04 0.03 0.01 0.00 0.00
0.00 0.00 0.00 0.00 0.00 0.00 0.00 0.00 0.00 0.00 0.00 0.00 0.01 0.01 0.01 0.01 0.00 0.01 0.23 0.82 1.31 1.42 0.66 0.43 0.29 0.63 0.61 0.47 0.35 0.39 0.36 0.36 0.42 0.41 0.23 0.13 0.13 0.11 0.07 0.04 0.02 0.00 0.00
0.00 0.00 0.00 0.00 0.00 0.00 0.00 0.00 0.00 0.01 0.00 0.01 0.02 0.02 0.01 0.00 0.00 0.02 0.08 0.50 1.10 1.33 1.32 0.68 0.41 0.41 0.67 0.46 0.41 0.40 0.37 0.31 0.27 0.31 0.23 0.22 0.12 0.07 0.05 0.03 0.02 0.01 0.00
0.00 0.00 0.00 0.00 0.00 0.00 0.00 0.01 0.02 0.01 0.01 0.02 0.02 0.03 0.02 0.01 0.00 0.01 0.06 0.25 0.78 1.11 1.34 1.24 0.73 0.45 0.54 0.55 0.41 0.48 0.38 0.29 0.25 0.21 0.21 0.22 0.18 0.13 0.11 0.07 0.04 0.02 0.00
0.00 0.00 0.00 0.00 0.00 0.00 0.00 0.02 0.03 0.03 0.02 0.03 0.02 0.02 0.02 0.02 0.01 0.01 0.06 0.18 0.48 0.94 1.16 1.26 1.22 0.92 0.52 0.54 0.46 0.53 0.55 0.34 0.25 0.21 0.17 0.15 0.12 0.08 0.12 0.12 0.09 0.06 0.05
0.01 0.00 0.00 0.00 0.00 0.00 0.00 0.02 0.04 0.05 0.05 0.04 0.03 0.03 0.03 0.03 0.02 0.01 0.02 0.11 0.25 0.61 0.98 0.95 1.10 1.27 1.00 0.58 0.55 0.51 0.65 0.45 0.28 0.21 0.18 0.16 0.10 0.10 0.10 0.12 0.13 0.13 0.05
0.00 0.00 0.00 0.00 0.00 0.00 0.00 0.03 0.05 0.07 0.08 0.07 0.06 0.04 0.04 0.04 0.03 0.01 0.01 0.04 0.14 0.38 0.72 0.83 0.74 1.20 1.43 0.96 0.64 0.60 0.52 0.64 0.33 0.28 0.21 0.20 0.15 0.11 0.11 0.12 0.15 0.16 0.13
0.00 0.00 0.00 0.00 0.00 0.00 0.00 0.01 0.05 0.10 0.13 0.13 0.12 0.10 0.08 0.06 0.04 0.03 0.03 0.03 0.08 0.27 0.49 0.70 0.63 0.80 1.43 1.62 0.88 0.67 0.51 0.51 0.59 0.30 0.35 0.26 0.21 0.21 0.15 0.11 0.13 0.11 0.11
0.00 0.00 0.00 0.00 0.00 0.00 0.00 0.00 0.01 0.06 0.11 0.14 0.15 0.15 0.11 0.09 0.07 0.07 0.05 0.04 0.08 0.19 0.37 0.50 0.69 0.67 0.91 1.52 1.58 0.81 0.66 0.60 0.53 0.56 0.35 0.38 0.23 0.28 0.24 0.17 0.08 0.08 0.06
0.00 0.00 0.00 0.00 0.00 0.00 0.00 0.00 0.00 0.02 0.09 0.13 0.17 0.18 0.18 0.14 0.13 0.12 0.11 0.10 0.12 0.20 0.28 0.40 0.58 0.84 0.86 1.07 1.40 1.49 0.93 0.70 0.62 0.58 0.50 0.33 0.31 0.29 0.29 0.26 0.18 0.06 0.04
0.00 0.00 0.00 0.00 0.00 0.00 0.00 0.00 0.00 0.00 0.05 0.10 0.15 0.19 0.21 0.18 0.16 0.20 0.21 0.20 0.20 0.29 0.28 0.30 0.51 0.80 1.07 1.26 1.26 1.24 1.30 0.83 0.62 0.52 0.56 0.35 0.38 0.29 0.31 0.27 0.23 0.12 0.04
0.00 0.00 0.00 0.00 0.00 0.00 0.00 0.00 0.00 0.00 0.01 0.07 0.11 0.18 0.24 0.22 0.24 0.31 0.29 0.34 0.31 0.40 0.37 0.38 0.46 0.59 0.92 1.16 1.34 1.55 1.23 1.13 0.86 0.67 0.47 0.53 0.39 0.37 0.22 0.29 0.24 0.15 0.09
0.00 0.00 0.00 0.00 0.00 0.00 0.00 0.00 0.00 0.00 0.00 0.01 0.07 0.11 0.27 0.27 0.29 0.34 0.34 0.44 0.36 0.51 0.51 0.46 0.53 0.58 0.84 1.11 1.28 1.51 1.51 1.32 1.29 1.00 0.75 0.58 0.55 0.40 0.25 0.24 0.25 0.17 0.17
0.00 0.00 0.00 0.00 0.00 0.00 0.00 0.00 0.00 0.00 0.00 0.00 0.01 0.05 0.15 0.24 0.29 0.38 0.40 0.52 0.40 0.61 0.60 0.46 0.50 0.58 0.61 0.89 1.07 1.25 1.42 1.31 1.40 1.39 1.10 0.79 0.72 0.56 0.46 0.36 0.32 0.20 0.18
0.00 0.00 0.00 0.00 0.00 0.00 0.00 0.00 0.00 0.00 0.00 0.00 0.00 0.01 0.03 0.11 0.25 0.37 0.45 0.64 0.58 0.64 0.75 0.54 0.52 0.48 0.40 0.54 0.64 0.88 1.07 1.11 1.18 1.19 1.26 1.18 0.85 0.74 0.61 0.52 0.38 0.29 0.22
0.00 0.00 0.00 0.00 0.00 0.00 0.00 0.00 0.00 0.00 0.00 0.00 0.00 0.00 0.00 0.02 0.08 0.22 0.41 0.59 0.68 0.63 0.86 0.62 0.61 0.54 0.55 0.61 0.71 0.89 1.03 1.06 1.15 1.08 1.21 1.34 1.10 0.85 0.78 0.77 0.61 0.36 0.27
0.00 0.00 0.00 0.00 0.00 0.00 0.00 0.00 0.00 0.00 0.00 0.00 0.00 0.00 0.00 0.00 0.01 0.06 0.24 0.48 0.72 0.63 0.71 0.73 0.70 0.61 0.69 0.96 1.10 1.44 1.43 1.49 1.59 1.37 1.24 1.58 1.34 1.23 1.00 0.89 0.93 0.64 0.33
0.00 0.00 0.00 0.00 0.00 0.00 0.00 0.00 0.00 0.00 0.00 0.00 0.00 0.00 0.00 0.00 0.00 0.01 0.03 0.16 0.49 0.71 0.72 0.67 0.77 0.73 0.68 0.90 1.40 1.61 2.08 1.78 1.81 1.53 1.07 1.56 1.57 1.41 1.55 1.19 0.92 0.94 0.65
0.00 0.00 0.00 0.00 0.00 0.00 0.00 0.00 0.00 0.00 0.00 0.00 0.00 0.00 0.00 0.00 0.00 0.00 0.01 0.02 0.08 0.23 0.44 0.61 0.70 0.71 0.64 0.86 1.22 1.71 2.21 2.02 1.84 1.84 1.37 1.05 1.34 1.25 1.55 1.85 1.23 0.71 0.57
0.00 0.00 0.00 0.00 0.00 0.00 0.00 0.00 0.00 0.00 0.00 0.00 0.00 0.00 0.00 0.00 0.00 0.00 0.00 0.01 0.02 0.04 0.08 0.16 0.32 0.56 0.55 0.64 1.04 1.42 1.89 2.11 2.10 1.99 1.55 1.18 1.17 1.29 1.57 2.00 1.91 1.15 0.94
0.01 0.00 0.00 0.00 0.00 0.00 0.00 0.00 0.00 0.00 0.00 0.00 0.00 0.00 0.00 0.00 0.00 0.00 0.00 0.00 0.02 0.03 0.04 0.04 0.07 0.15 0.29 0.35 0.50 0.89 1.44 1.88 1.90 2.01 1.84 1.43 1.24 1.32 1.43 1.65 1.90 2.01 1.94
0.02 0.01 0.01 0.00 0.00 0.00 0.00 0.00 0.00 0.00 0.00 0.00 0.00 0.00 0.00 0.00 0.00 0.00 0.00 0.00 0.02 0.03 0.05 0.06 0.06 0.07 0.06 0.11 0.15 0.33 0.70 1.14 1.54 1.65 1.44 1.10 1.12 1.24 1.44 1.45 1.48 2.08 2.33
0.03 0.04 0.02 0.02 0.00 0.00 0.00 0.00 0.00 0.00 0.00 0.00 0.00 0.00 0.00 0.00 0.00 0.00 0.00 0.01 0.03 0.06 0.08 0.11 0.09 0.11 0.13 0.17 0.21 0.22 0.25 0.42 0.82 1.11 1.20 0.97 0.87 1.02 1.31 1.38 1.36 1.37 1.56
0.05 0.05 0.03 0.02 0.01 0.00 0.00 0.00 0.00 0.00 0.00 0.00 0.00 0.00 0.00 0.00 0.00 0.00 0.00 0.00 0.01 0.02 0.04 0.06 0.09 0.08 0.16 0.14 0.14 0.14 0.17 0.19 0.20 0.28 0.57 0.99 1.09 1.09 1.22 1.17 1.19 1.12 1.28